KVTA

Details ICAO KVTA
Name NEWARK HEATH
Region United States
Timezone America/New_York (UTC-4.0)
Plans Departing 12
Arriving 10
Stats Elevation 884 ft / 269 m (AMSL)
Location 40.024661° -82.461812°
Runways 1
Magnetic Variation 7.526° W
Sunrise 2018-05-24 10:08:49 UTC / 2018-05-24 06:08:49 Local
Sunset 2018-05-25 00:47:28 UTC / 2018-05-24 20:47:28 Local
Advertisement - Login to hide

Runways

ID Width Length Bearing (true) Bearing (mag) Surface Threshold Offset Overrun Length
09 75 ft / 23 m 4,638 ft / 1,414 m 86.91° 94.44° Asphalt 457 ft / 139 m 0 ft / 0 m
27 75 ft / 23 m 4,638 ft / 1,414 m 266.92° 274.45° Asphalt 0 ft / 0 m 0 ft / 0 m

Approach Navaids

Runway Type Ident Frequency Range Bearing (true) Bearing (mag) Slope Elevation
09 Localiser IRXK 110.90 MHz 18 nm / 33 km 87.06° 94.59° - 860 ft / 262 m (AMSL)

Map

Weather


0- 5 10 15 20 25 30 35+ Temperature / ° C

Clouds and Precipitation
Forecast for 2018-05-24 18:00 UTC. Updated 4 hours ago

Ground ~20,000 ft ~40,000 ft Winds

METAR

KVTA 242054Z AUTO 14007KT 10SM CLR 28/10 A3013 RMK AO2 SLP197 T02780100 58022

TAF

Not found

Frequencies

Recorded 121.12 MHz ASOS
Clearance 124.85 MHz CLNC DEL
Unicom 122.70 MHz CTAF/UNICOM
Approach 120.20 MHz COLUMBUS APP/DEP
Warning: Do not use this data for real-world aviation or navigation. No guarantee of current accuracy is given.